Tracking 30009 objects as of 8-Dec-2024
HD Live streaming from Space Station
objects crossing your sky now

COSMOS 1275 DEB

Track COSMOS 1275 DEB now!
10-day predictions


NORAD ID: 12671
Int'l Code: 1981-053AB
Perigee: 853.1 km
Apogee: 886.4 km
Inclination: 82.9 °
Period: 102.2 minutes
Semi major axis: 7240 km
RCS: 0.0812 m2 (small)
Launch date: June 4, 1981
Source: Commonwealth of Independent States (former USSR) (CIS)
Launch site: PLESETSK MISSILE AND SPACE COMPLEX (PKMTR)

Note: This is SATELLITE DEBRIS
Your satellite tracking list
Your tracking list is empty




NASA's NSSDC Master Catalog

Two Line Element Set (TLE):
1 12671U 81053AB  24342.83285186  .00004125  00000-0  23656-2 0  9996
2 12671  82.9069 268.9102 0023030 100.7886 259.5883 14.09055201201672
Source of the keplerian elements: AFSPC